Location: Claremont
(33.9858°S, 18.4575°E)
Time: 11:29:34
(UTC+00:00)

ISS - Pass Details

Date: 03 March 2021
Orbit: 418 x 421 km, 51.6° (Epoch: 22 April)

Event Time Altitude Azimuth Distance (km) Brightness Sun altitude
Rises 18:37:27 0° 219° (SW) 2,407 1.1 -16.4°
Reaches altitude 10° 18:39:44 10° 207° (SSW) 1,534 -0.2 -16.9°
Maximum altitude 18:42:50 30° 143° (SE) 791 -2.5 -17.5°
Enters shadow 18:43:12 30° 130° (SE) 805 -2.6 -17.6°
